Location: Rio Negrinho
(26.2394°S, 49.4999°W)
Time: 12:44:11
(UTC+00:00)

NOAA 6 - Pass Details

Date: 02 October 2020
Orbit: 773 x 786 km, 98.7° (Epoch: 26 October)

Event Time Altitude Azimuth Distance (km) Brightness Sun altitude
Rises 08:07:20 0° 25° (NNE) 3,254 7.5 -11.7°
Reaches altitude 10° 08:09:41 10° 30° (NNE) 2,331 6.8 -11.1°
Maximum altitude 08:14:40 53° 105° (ESE) 964 5.0 -10.0°
Drops below altitude 10° 08:19:42 10° 181° (S) 2,349 6.6 -8.9°
Sets 08:22:04 0° 185° (S) 3,281 7.3 -8.4°
